Dalzell, IL

8:51 PM CST on February 25, 2017 (GMT -0600)
Illinois Valley Regional-Duncan

Weather History for KVYS - March, 2014

Change the Weather History Date:

Sunday, March 2, 2014

  Actual Average Record
Temperature  
Mean Temperature 6 °F -  
Max Temperature 11 °F 44 °F 73 °F (1974)
Min Temperature 1 °F 24 °F 1 °F (2014)
Degree Days  
Heating Degree Days 59    
Moisture  
Dew Point -2 °F    
Average Humidity 67    
Maximum Humidity 87    
Minimum Humidity 58    
Precipitation  
Precipitation 0.01 in - - ()
Sea Level Pressure  
Sea Level Pressure 30.40 in    
Wind  
Wind Speed 12 mph (NNW)    
Max Wind Speed 17 mph    
Max Gust Speed 20 mph    
Visibility 9 miles    
Events Snow    
Averages and records for this station are not official NWS values.
T = Trace of Precipitation, MM = Missing Value Source: NWS Daily Summary

Daily Weather History Graph

Daily Weather History Graph

Search for Another Location

Airport or City:

Trip Planner

Search our weather history database for the weather conditions in past years. The results will help you decide how hot, cold, wet, or windy it might be!

Date:

Astronomy

Mar. 02, 2014 Rise Set
Actual Time 6:29 AM CST 5:48 PM CST
Civil Twilight 6:01 AM CST 6:16 PM CST
Nautical Twilight 5:29 AM CST 6:48 PM CST
Astronomical Twilight 4:57 AM CST 7:20 PM CST
Moon 6:59 AM CST (3/2) 7:46 PM CST (3/2)
Length of Visible Light 12h 14m
Length of Day
11h 19m
Waxing Crescent, 3% of the Moon is Illuminated
Mar 2
Waxing Crescent
Mar 8
First Quarter
Mar 16
Full
Mar 23
Last Quarter
Mar 30
New

Hourly Weather History & Observations

Time (CST) Temp. Windchill Dew Point Humidity Pressure Visibility Wind Dir Wind Speed Gust Speed Precip Events Conditions
12:15 AM 11.8 °F -3.0 °F 8.4 °F 86% 30.35 in 2.0 mi North 12.7 mph - 0.01 in Snow Light Snow
12:35 AM 11.8 °F -1.5 °F 8.4 °F 86% 30.33 in 2.5 mi North 10.4 mph - 0.01 in Snow Light Snow
12:55 AM 11.8 °F -1.5 °F 8.4 °F 86% 30.34 in 1.8 mi North 10.4 mph - 0.01 in Snow Light Snow
1:15 AM 11.3 °F -0.4 °F 8.1 °F 87% 30.34 in 1.2 mi North 8.1 mph - N/A Snow Light Snow
1:35 AM 11.5 °F -1.1 °F 8.1 °F 86% 30.35 in 2.0 mi North 9.2 mph - N/A Snow Light Snow
1:55 AM 11.3 °F -2.2 °F 7.7 °F 85% 30.35 in 2.5 mi North 10.4 mph - N/A Snow Light Snow
2:15 AM 11.1 °F -3.9 °F 7.5 °F 85% 30.34 in 2.5 mi North 12.7 mph - N/A Snow Light Snow
2:35 AM 10.9 °F -3.4 °F 7.2 °F 85% 30.34 in 3.0 mi North 11.5 mph - N/A Snow Light Snow
2:55 AM 11.1 °F -5.1 °F 7.3 °F 85% 30.35 in 5.0 mi North 15.0 mph - N/A Snow Light Snow
3:15 AM 10.8 °F -5.6 °F 6.6 °F 83% 30.33 in 7.0 mi North 15.0 mph - N/A Snow Light Snow
3:35 AM 10.4 °F -4.1 °F 6.4 °F 84% 30.34 in 2.5 mi North 11.5 mph - N/A Snow Light Snow
3:55 AM 10.4 °F -5.4 °F 6.4 °F 84% 30.35 in 3.0 mi North 13.8 mph - N/A Snow Light Snow
4:15 AM 9.7 °F -5.7 °F 5.0 °F 81% 30.35 in 2.5 mi North 12.7 mph - N/A Snow Light Snow
4:35 AM 9.7 °F -5.7 °F 5.0 °F 81% 30.36 in 4.0 mi North 12.7 mph - N/A   Haze
4:55 AM 9.5 °F -7.8 °F 4.1 °F 79% 30.36 in 10.0 mi North 16.1 mph 19.6 mph N/A   Overcast
5:15 AM 9.3 °F -8.6 °F 2.5 °F 74% 30.36 in 10.0 mi North 17.3 mph - N/A   Overcast
5:35 AM 9.0 °F -7.3 °F 1.4 °F 71% 30.36 in 10.0 mi North 13.8 mph - N/A   Mostly Cloudy
5:55 AM 8.2 °F -8.2 °F 0.3 °F 70% 30.38 in 10.0 mi North 13.8 mph - N/A   Mostly Cloudy
6:15 AM 7.7 °F -8.2 °F -0.4 °F 70% 30.38 in 10.0 mi North 12.7 mph - N/A   Scattered Clouds
6:35 AM 7.5 °F -7.7 °F -0.4 °F 70% 30.37 in 10.0 mi North 11.5 mph - N/A   Mostly Cloudy
6:55 AM 6.8 °F -8.6 °F -1.3 °F 69% 30.38 in 10.0 mi North 11.5 mph - N/A   Mostly Cloudy
7:15 AM 6.3 °F -8.4 °F -2.2 °F 68% 30.38 in 10.0 mi North 10.4 mph - N/A   Mostly Cloudy
7:35 AM 6.8 °F -8.6 °F -0.4 °F 72% 30.40 in 10.0 mi NNW 11.5 mph - N/A   Overcast
7:55 AM 7.3 °F -9.3 °F -1.3 °F 68% 30.40 in 10.0 mi North 13.8 mph - N/A   Overcast
8:15 AM 7.3 °F -10.6 °F -1.1 °F 68% 30.41 in 10.0 mi North 16.1 mph - N/A   Overcast
8:35 AM 7.5 °F -10.9 °F -1.7 °F 66% 30.41 in 10.0 mi North 17.3 mph - N/A   Overcast
8:55 AM 7.3 °F -10.0 °F -1.8 °F 66% 30.42 in 10.0 mi NNW 15.0 mph - N/A   Overcast
9:15 AM 7.5 °F -8.4 °F -1.8 °F 66% 30.42 in 10.0 mi NNW 12.7 mph - N/A   Overcast
9:35 AM 7.2 °F -8.9 °F -2.2 °F 66% 30.42 in 10.0 mi NNW 12.7 mph - N/A   Overcast
9:55 AM 7.5 °F -6.9 °F -2.4 °F 64% 30.43 in 10.0 mi NNW 10.4 mph - N/A   Overcast
10:15 AM 8.2 °F -7.5 °F -1.7 °F 64% 30.42 in 10.0 mi NNW 12.7 mph - N/A   Mostly Cloudy
10:35 AM 9.0 °F -5.9 °F -1.7 °F 62% 30.43 in 10.0 mi North 11.5 mph - N/A   Overcast
10:55 AM 9.1 °F -7.7 °F -1.5 °F 62% 30.43 in 10.0 mi NW 15.0 mph - N/A   Overcast
11:15 AM 9.1 °F -7.0 °F -1.5 °F 62% 30.43 in 10.0 mi NNW 13.8 mph - N/A   Overcast
11:35 AM 8.6 °F -7.0 °F -2.4 °F 61% 30.42 in 10.0 mi NNW 12.7 mph 18.4 mph N/A   Scattered Clouds
11:55 AM 8.6 °F -7.7 °F -2.2 °F 62% 30.41 in 10.0 mi NNW 13.8 mph - N/A   Clear
12:15 PM 8.6 °F -8.3 °F -2.0 °F 62% 30.41 in 10.0 mi NNW 15.0 mph - N/A   Clear
12:35 PM 8.1 °F -9.6 °F -2.4 °F 62% 30.40 in 10.0 mi NNW 16.1 mph - N/A   Clear
12:55 PM 7.9 °F -9.9 °F -2.9 °F 61% 30.39 in 10.0 mi NNW 16.1 mph - N/A   Clear
1:15 PM 8.1 °F -9.0 °F -3.1 °F 60% 30.38 in 10.0 mi NNW 15.0 mph - N/A   Clear
1:35 PM 7.9 °F -9.3 °F -4.2 °F 58% 30.38 in 10.0 mi North 15.0 mph - N/A   Clear
1:55 PM 8.1 °F -10.2 °F -3.6 °F 59% 30.38 in 10.0 mi North 17.3 mph - N/A   Clear
2:15 PM 8.1 °F -9.0 °F -3.5 °F 59% 30.41 in 10.0 mi NNW 15.0 mph - N/A   Clear
2:35 PM 8.2 °F -8.8 °F -2.9 °F 60% 30.40 in 10.0 mi North 15.0 mph - N/A   Clear
2:55 PM 8.1 °F -7.7 °F -4.0 °F 58% 30.39 in 10.0 mi NNW 12.7 mph - N/A   Clear
3:15 PM 7.7 °F -8.2 °F -3.6 °F 60% 30.39 in 10.0 mi North 12.7 mph - N/A   Clear
3:35 PM 7.5 °F -6.9 °F -4.0 °F 59% 30.39 in 10.0 mi North 10.4 mph - N/A   Clear
3:55 PM 7.9 °F -8.6 °F -3.6 °F 59% 30.41 in 10.0 mi NNW 13.8 mph 17.3 mph N/A   Clear
4:15 PM 7.7 °F -8.2 °F -3.8 °F 59% 30.41 in 10.0 mi NW 12.7 mph - N/A   Clear
4:35 PM 6.8 °F -10.7 °F -4.2 °F 61% 30.39 in 10.0 mi NNW 15.0 mph - N/A   Clear
4:55 PM 6.4 °F -10.5 °F -4.7 °F 60% 30.40 in 10.0 mi NNW 13.8 mph - N/A   Clear
5:15 PM 5.9 °F -9.7 °F -4.9 °F 61% 30.40 in 10.0 mi NNW 11.5 mph - N/A   Clear
5:35 PM 5.0 °F -10.0 °F -5.3 °F 63% 30.41 in 10.0 mi NNW 10.4 mph - N/A   Clear
5:55 PM 4.5 °F -10.7 °F -6.3 °F 61% 30.41 in 10.0 mi NW 10.4 mph - N/A   Clear
6:15 PM 4.1 °F -11.1 °F -6.7 °F 61% 30.42 in 10.0 mi NW 10.4 mph - N/A   Clear
6:30 PM 4.1 °F -12.0 °F -6.7 °F 61% 30.42 in 10.0 mi NNW 11.5 mph - N/A   Clear
6:55 PM 4.1 °F -10.2 °F -7.2 °F 59% 30.41 in 10.0 mi NNW 9.2 mph - N/A   Clear
7:15 PM 3.9 °F -12.2 °F -7.2 °F 60% 30.41 in 10.0 mi NNW 11.5 mph - N/A   Clear
7:35 PM 3.9 °F -9.4 °F -7.6 °F 59% 30.42 in 10.0 mi NNW 8.1 mph - N/A   Clear
7:55 PM 2.5 °F -11.1 °F -8.1 °F 61% 30.42 in 10.0 mi NNW 8.1 mph - N/A   Clear
8:15 PM 2.3 °F -10.2 °F -8.0 °F 62% 30.42 in 10.0 mi NNW 6.9 mph - N/A   Clear
8:35 PM 2.3 °F -13.4 °F -8.5 °F 61% 30.42 in 10.0 mi NNW 10.4 mph - N/A   Clear
8:55 PM 2.8 °F -13.5 °F -8.5 °F 59% 30.43 in 10.0 mi NNW 11.5 mph - N/A   Clear
9:15 PM 2.5 °F -13.1 °F -8.9 °F 59% 30.42 in 10.0 mi NNW 10.4 mph - N/A   Clear
9:35 PM 2.3 °F -11.4 °F -9.4 °F 58% 30.43 in 10.0 mi NNW 8.1 mph - N/A   Clear
9:55 PM 2.3 °F -12.4 °F -9.4 °F 58% 30.43 in 10.0 mi NNW 9.2 mph - N/A   Clear
10:15 PM 2.1 °F -9.0 °F -9.4 °F 59% 30.44 in 10.0 mi NNW 5.8 mph - N/A   Clear
10:35 PM 1.9 °F -11.8 °F -9.4 °F 59% 30.44 in 10.0 mi NNW 8.1 mph - N/A   Clear
10:55 PM 1.9 °F -11.8 °F -9.6 °F 59% 30.43 in 10.0 mi NNW 8.1 mph - N/A   Clear
11:10 PM 1.9 °F -13.8 °F -9.6 °F 59% 30.44 in 10.0 mi NNW 10.4 mph - N/A   Clear
11:35 PM 1.4 °F -12.5 °F -9.8 °F 60% 30.43 in 10.0 mi NNW 8.1 mph - N/A   Clear
11:55 PM 1.0 °F -11.7 °F -9.8 °F 61% 30.44 in 10.0 mi NNW 6.9 mph - N/A   Clear